[[{"header":{"parameterUnit":"m.s-1","parameterCategory":1,"la1":30.2991,"la2":30.254,"lo1":-89.0895,"lo2":-89.0444,"dy":0.0017,"dx":0.0017,"nx":28,"ny":28,"refTime":"2024-06-07T03:00:00:Z","depth":0,"parameterNumber":2,"parameterNumberName":"U-component_of_WINDS"},"data":[0,0,0,0,0,0,0,0,0,0,0,0,0,0,0,0,0,0,0,0,0,0,0,0,0,0,0,0,0,0,0,0,0,0,0,0,0,0,0,0,0,0,0,0,0,0,0,0,0,0,0,0,0,0,0,0,0,0,-0.381,-0.3809,0,-0.3701,-0.37,-0.3699,-0.3654,-0.3655,-0.3655,-0.3655,-0.3543,-0.354,-0.3537,0,0,0,0,0,0,0,0,0,0,0,0,0,-0.398,-0.3977,-0.381,-0.3809,-0.3807,-0.3701,-0.37,-0.3698,-0.3654,-0.3655,-0.3655,-0.3655,-0.3544,-0.3541,-0.3537,0,0,0,0,0,0,0,0,0,0,0,0,0,-0.3892,-0.3976,-0.381,-0.3773,-0.3768,-0.3702,-0.37,-0.3698,-0.3654,-0.3655,-0.3655,-0.3655,-0.3546,-0.3541,-0.3536,-0.3499,0,0,-0.3522,-0.3519,0,0,0,0,0,0,0,0,-0.3897,-0.3886,-0.3779,-0.3775,-0.377,-0.3692,-0.3719,-0.3631,-0.3654,-0.3697,-0.3655,-0.3656,-0.3592,-0.3584,-0.3563,-0.3494,-0.3489,-0.3521,-0.3518,-0.3516,-0.3515,0,0,0,0,0,0,0,-0.3903,-0.389,-0.3767,-0.3778,-0.3772,-0.3761,-0.3749,-0.3702,-0.3644,-0.3694,-0.369,-0.3678,-0.359,-0.3567,-0.356,-0.3487,-0.3521,-0.3517,-0.3514,-0.3512,-0.3383,-0.3383,0,0,0,0,0,0,-0.3916,-0.3896,-0.377,-0.3764,-0.3836,-0.3758,-0.3744,-0.3716,-0.3645,-0.3634,-0.3678,-0.3676,-0.3575,-0.3565,-0.3555,-0.3507,-0.3516,-0.3512,-0.3509,-0.3384,-0.3383,-0.3382,0,0,0,0,0,0,-0.3919,-0.3905,-0.3775,-0.3829,-0.3811,-0.3754,-0.3723,-0.3714,-0.3691,-0.3632,-0.3622,-0.3665,-0.3575,-0.3562,-0.3514,-0.3503,-0.351,-0.3505,-0.3384,-0.3384,-0.3383,-0.3411,0,0,0,0,0,0,-0.3924,-0.3906,-0.3892,-0.3829,-0.3809,-0.3734,-0.3723,-0.3712,-0.3683,-0.368,-0.3618,-0.3608,-0.3575,-0.3521,-0.3509,-0.3496,-0.3501,-0.3385,-0.3384,-0.3383,-0.341,-0.3411,-0.3411,0,0,0,0,0,-0.3931,-0.3904,-0.3891,-0.3876,-0.3789,-0.3734,-0.3722,-0.3684,-0.3683,-0.3667,-0.363,-0.361,-0.3506,-0.3516,-0.3502,-0.3488,-0.3386,-0.3384,-0.3383,-0.341,-0.3411,-0.3411,0,0,0,0,0,0,-0.3966,-0.3895,-0.388,-0.3832,-0.3789,-0.3727,-0.3706,-0.3686,-0.3643,-0.3642,-0.3597,-0.3584,-0.3539,-0.3509,-0.3521,-0.3449,-0.3444,-0.344,-0.347,-0.347,-0.347,-0.3478,-0.3497,0,0,0,0,0,-0.3969,-0.393,-0.387,-0.3833,-0.3812,-0.3763,-0.3738,-0.3712,-0.3667,-0.3648,-0.3607,-0.3563,-0.3521,-0.3494,-0.3451,-0.3406,-0.3392,-0.339,-0.339,-0.3391,-0.3387,-0.3362,-0.336,-0.3379,-0.3379,-0.3379,0,0,-0.3973,-0.3929,-0.3907,-0.3839,-0.3803,-0.3764,-0.3748,-0.3708,-0.3678,-0.3642,-0.3593,-0.3562,-0.351,-0.3463,-0.3441,-0.3437,-0.3379,-0.3389,-0.339,-0.3386,-0.336,-0.3359,-0.3357,-0.3378,-0.3378,-0.3378,0,0,-0.3961,-0.3924,-0.3889,-0.3854,-0.38,-0.3767,-0.3759,-0.37,-0.3677,-0.3628,-0.36,-0.3565,-0.3493,-0.3457,-0.3429,-0.3405,-0.3386,-0.3393,-0.3395,-0.337,-0.3369,-0.3367,-0.3358,-0.3356,-0.339,-0.339,-0.339,0,-0.3972,-0.3913,-0.3874,-0.3835,-0.3806,-0.3771,-0.3736,-0.3704,-0.3639,-0.362,-0.3617,-0.3526,-0.3488,-0.3433,-0.3427,-0.3406,-0.3395,-0.3399,-0.3372,-0.337,-0.3368,-0.3359,-0.3356,-0.3391,-0.3391,-0.3391,-0.3391,0,-0.393,-0.3889,-0.3868,-0.3807,-0.3775,-0.3738,-0.3694,-0.3667,-0.3644,-0.3612,-0.3563,-0.3517,-0.3465,-0.3451,-0.3428,-0.3392,-0.3391,-0.3381,-0.3375,-0.3368,-0.3359,-0.3355,-0.3393,-0.3392,-0.3392,-0.3392,0,0,-0.3936,-0.3854,-0.3847,-0.3819,-0.3758,-0.3725,-0.3687,-0.3637,-0.3614,-0.3571,-0.3538,-0.3479,-0.3469,-0.3438,-0.3411,-0.339,-0.3373,-0.3382,-0.338,-0.3382,-0.3331,-0.3339,-0.3336,-0.3361,-0.336,-0.3359,-0.3335,0,-0.3915,-0.3846,-0.381,-0.3755,-0.3717,-0.3685,-0.3652,-0.3611,-0.3581,-0.3544,-0.351,-0.3469,-0.3459,-0.344,-0.3417,-0.338,-0.3363,-0.3382,-0.3329,-0.3328,-0.3343,-0.3331,-0.3339,-0.3319,-0.3332,-0.3331,-0.333,0,-0.3882,-0.3839,-0.3781,-0.3725,-0.3707,-0.3678,-0.3629,-0.3595,-0.3548,-0.3527,-0.3493,-0.3468,-0.3427,-0.3425,-0.3368,-0.3382,-0.3359,-0.3338,-0.3336,-0.3329,-0.3328,-0.3324,-0.3311,-0.3308,-0.3324,-0.3325,-0.3325,0,-0.3892,-0.382,-0.3776,-0.3753,-0.3686,-0.3667,-0.3638,-0.3591,-0.3564,-0.3521,-0.3503,-0.3456,-0.343,-0.3395,-0.3358,-0.336,-0.3304,-0.33,-0.3286,-0.3287,-0.3275,-0.3276,-0.3259,-0.3261,-0.3261,-0.3261,-0.3261,0,-0.3872,-0.3838,-0.378,-0.3753,-0.3714,-0.3673,-0.3636,-0.3604,-0.3564,-0.353,-0.35,-0.3469,-0.3421,-0.3385,-0.3356,-0.3313,-0.3302,-0.3284,-0.3276,-0.3286,-0.3289,-0.327,-0.327,-0.326,-0.3261,-0.3261,-0.3261,0,-0.3876,-0.3836,-0.3786,-0.3727,-0.3712,-0.3686,-0.3635,-0.3608,-0.3576,-0.3535,-0.3522,-0.3473,-0.3428,-0.3388,-0.3329,-0.3309,-0.3266,-0.3256,-0.3282,-0.3277,-0.3266,-0.3268,-0.3235,-0.3229,-0.3237,-0.3237,-0.3237,0,-0.3866,-0.3839,-0.3778,-0.3753,-0.3725,-0.3686,-0.3657,-0.3617,-0.3589,-0.3534,-0.3513,-0.3467,-0.3427,-0.3358,-0.3317,-0.3271,-0.3261,-0.3252,-0.3253,-0.3265,-0.326,-0.3262,-0.3259,-0.3253,-0.3253,-0.3253,-0.3253,0,-0.3852,-0.3834,-0.3794,-0.3748,-0.3715,-0.3676,-0.3636,-0.3618,-0.357,-0.354,-0.3494,-0.3464,-0.3404,-0.3358,-0.3309,-0.3279,-0.3258,-0.3253,-0.3248,-0.3257,-0.3273,-0.3264,-0.3283,-0.3254,-0.3254,-0.3254,-0.3254,-0.3254,-0.3848,-0.3823,-0.3776,-0.3733,-0.3699,-0.3663,-0.3635,-0.36,-0.3561,-0.3509,-0.3488,-0.3442,-0.3396,-0.3327,-0.3298,-0.3262,-0.3257,-0.3249,-0.3247,-0.3246,-0.3248,-0.3279,-0.3253,-0.3253,-0.3253,-0.3252,-0.3252,0,-0.3833,-0.3801,-0.3762,-0.3708,-0.3674,-0.3658,-0.3614,-0.3586,-0.3546,-0.3506,-0.3468,-0.3416,-0.3371,-0.3327,-0.3281,-0.326,-0.3249,-0.3249,-0.325,-0.3244,-0.3254,-0.3264,-0.3259,-0.3259,-0.3259,-0.3259,-0.3259,-0.3259,-0.3821,-0.3777,-0.3753,-0.3693,-0.3661,-0.3616,-0.3592,-0.3559,-0.3526,-0.347,-0.3433,-0.3405,-0.3363,-0.3313,-0.3272,-0.326,-0.3244,-0.3247,-0.3232,-0.3243,-0.3243,-0.3243,-0.3251,-0.3244,-0.3244,-0.3225,-0.3225,-0.3224]},{"header":{"parameterUnit":"m.s-1","parameterCategory":1,"la1":30.2991,"la2":30.254,"lo1":-89.0895,"lo2":-89.0444,"dy":0.0017,"dx":0.0017,"nx":28,"ny":28,"refTime":"2024-06-07T03:00:00:Z","depth":0,"parameterNumber":3,"parameterNumberName":"V-component_of_WINDS"},"data":[0,0,0,0,0,0,0,0,0,0,0,0,0,0,0,0,0,0,0,0,0,0,0,0,0,0,0,0,0,0,0,0,0,0,0,0,0,0,0,0,0,0,0,0,0,0,0,0,0,0,0,0,0,0,0,0,0,0,0.4541,0.4542,0,0.4625,0.4626,0.4627,0.4617,0.4615,0.4614,0.4612,0.4697,0.4701,0.4704,0,0,0,0,0,0,0,0,0,0,0,0,0,0.4369,0.4373,0.4541,0.4542,0.4543,0.4625,0.4626,0.4627,0.4617,0.4615,0.4613,0.4612,0.4696,0.47,0.4704,0,0,0,0,0,0,0,0,0,0,0,0,0,0.4448,0.4374,0.4541,0.4548,0.455,0.4625,0.4626,0.4628,0.4617,0.4615,0.4613,0.4611,0.4695,0.47,0.4705,0.4778,0,0,0.4721,0.4723,0,0,0,0,0,0,0,0,0.4443,0.4454,0.4546,0.4548,0.4549,0.4608,0.4596,0.4678,0.4618,0.4591,0.4612,0.461,0.4669,0.4676,0.4696,0.4782,0.4786,0.4721,0.4725,0.4727,0.4728,0,0,0,0,0,0,0,0.4438,0.445,0.4574,0.4547,0.4549,0.4546,0.4555,0.4612,0.4641,0.4594,0.4593,0.4603,0.467,0.4691,0.4698,0.4787,0.4721,0.4726,0.4729,0.4731,0.4932,0.4934,0,0,0,0,0,0,0.4431,0.4446,0.4572,0.4577,0.449,0.4551,0.4561,0.4591,0.464,0.4645,0.4605,0.4602,0.4683,0.4692,0.4701,0.4787,0.4727,0.4732,0.4735,0.493,0.4933,0.4935,0,0,0,0,0,0,0.4427,0.4442,0.4568,0.4511,0.4527,0.4556,0.4591,0.4594,0.4616,0.4648,0.4653,0.4622,0.4682,0.4694,0.4758,0.479,0.4734,0.4739,0.4927,0.4931,0.4934,0.496,0,0,0,0,0,0,0.4422,0.4441,0.447,0.4512,0.453,0.4625,0.4593,0.4597,0.4625,0.4623,0.4666,0.4671,0.4681,0.475,0.4763,0.4796,0.4743,0.4925,0.4929,0.4933,0.4957,0.4964,0.497,0,0,0,0,0,0.4416,0.4475,0.4472,0.4487,0.4567,0.4627,0.4637,0.4648,0.4628,0.4656,0.4677,0.467,0.4785,0.4757,0.4772,0.4806,0.4923,0.4928,0.4933,0.4954,0.4963,0.497,0,0,0,0,0,0,0.4437,0.4481,0.4478,0.4552,0.4586,0.4625,0.4661,0.4658,0.4698,0.4694,0.4706,0.4716,0.478,0.48,0.4769,0.4877,0.4851,0.4859,0.4862,0.487,0.4877,0.487,0.4748,0,0,0,0,0,0.445,0.4495,0.4531,0.4593,0.461,0.4633,0.4659,0.4665,0.47,0.4714,0.474,0.4774,0.4817,0.4845,0.4887,0.496,0.4967,0.4991,0.4998,0.5003,0.5009,0.5045,0.5054,0.4951,0.4951,0.4951,0,0,0.4477,0.4507,0.4535,0.4598,0.4625,0.4669,0.4645,0.4695,0.4727,0.4722,0.4783,0.4803,0.4841,0.4909,0.494,0.4927,0.5039,0.5009,0.5013,0.5016,0.5051,0.506,0.5069,0.4954,0.4954,0.4953,0,0,0.455,0.4578,0.4631,0.4658,0.4698,0.4712,0.4725,0.4765,0.4777,0.4839,0.4834,0.4873,0.4949,0.4975,0.4998,0.5078,0.5071,0.5091,0.5126,0.5161,0.5169,0.5176,0.52,0.5209,0.5098,0.5098,0.5098,0,0.4579,0.4647,0.4658,0.4707,0.4733,0.473,0.4782,0.4808,0.486,0.4877,0.4863,0.4955,0.4981,0.5052,0.5071,0.5092,0.5104,0.5085,0.5167,0.5174,0.5181,0.5204,0.5214,0.51,0.5099,0.5099,0.5099,0,0.4678,0.4725,0.4763,0.4812,0.4843,0.4893,0.4911,0.494,0.4943,0.4958,0.5019,0.505,0.5096,0.5114,0.5118,0.5185,0.5176,0.5164,0.5137,0.5192,0.5214,0.5224,0.5102,0.5102,0.5101,0.5101,0,0,0.4766,0.4819,0.4832,0.4852,0.4896,0.4932,0.4981,0.5026,0.5049,0.5085,0.5124,0.5187,0.5175,0.5202,0.5208,0.5239,0.5295,0.5223,0.5224,0.5232,0.5366,0.5373,0.5383,0.5292,0.5294,0.5295,0.5362,0,0.4839,0.4926,0.4936,0.5013,0.5054,0.505,0.5093,0.5123,0.5138,0.5174,0.5191,0.5234,0.5218,0.5233,0.5263,0.5282,0.5321,0.5277,0.5326,0.5327,0.5313,0.5395,0.5403,0.5465,0.5371,0.5373,0.5374,0,0.4937,0.4973,0.5053,0.5087,0.5105,0.5143,0.5183,0.5219,0.5252,0.5261,0.5289,0.5291,0.5339,0.5311,0.5376,0.5346,0.5367,0.5378,0.5381,0.5383,0.5352,0.5397,0.5485,0.5493,0.5388,0.5387,0.5386,0,0.4987,0.5057,0.5113,0.5131,0.5174,0.5199,0.5218,0.5249,0.5275,0.531,0.5325,0.5366,0.5388,0.5418,0.5429,0.5409,0.5492,0.5467,0.5498,0.5498,0.5514,0.5512,0.5604,0.5533,0.5533,0.5533,0.5532,0,0.5067,0.5115,0.5136,0.517,0.5223,0.5234,0.5286,0.5303,0.533,0.5366,0.5367,0.54,0.5415,0.545,0.546,0.551,0.5521,0.5527,0.5528,0.5525,0.5524,0.5537,0.5531,0.5535,0.5535,0.5534,0.5534,0,0.5131,0.5148,0.5208,0.5242,0.5252,0.5289,0.5317,0.5349,0.5364,0.5409,0.542,0.5442,0.5483,0.5499,0.555,0.5556,0.5612,0.5612,0.5601,0.56,0.5629,0.5625,0.573,0.5742,0.5666,0.5667,0.5668,0,0.5179,0.5216,0.5253,0.5277,0.5296,0.5336,0.536,0.5372,0.5398,0.5437,0.5463,0.5504,0.5537,0.5603,0.5623,0.5661,0.5659,0.5693,0.5665,0.5659,0.5655,0.5651,0.5653,0.5697,0.5698,0.5699,0.5699,0,0.5261,0.5267,0.5303,0.5341,0.5371,0.5402,0.5432,0.5451,0.5467,0.5496,0.5537,0.5563,0.5614,0.5653,0.5691,0.5709,0.5706,0.5708,0.5717,0.5712,0.5703,0.5705,0.5611,0.5705,0.5705,0.5704,0.5704,0.5704,0.5317,0.5347,0.5377,0.5417,0.544,0.5467,0.5498,0.5515,0.555,0.5592,0.5597,0.5641,0.567,0.5721,0.574,0.5774,0.5764,0.5778,0.578,0.5783,0.5783,0.57,0.5781,0.5781,0.5781,0.5781,0.5781,0,0.5395,0.5414,0.545,0.5491,0.5521,0.5516,0.5548,0.5573,0.5612,0.5639,0.5671,0.5717,0.5755,0.5777,0.5815,0.5837,0.5836,0.5846,0.5843,0.5846,0.5791,0.5778,0.5845,0.5845,0.5845,0.5845,0.5845,0.5845,0.5439,0.549,0.5499,0.556,0.5578,0.5621,0.5639,0.5663,0.5685,0.5736,0.5767,0.5781,0.5806,0.5844,0.5878,0.5883,0.5895,0.5906,0.5909,0.5857,0.585,0.5844,0.5832,0.5909,0.5909,0.5961,0.5962,0.5962]}]]